Flag for U.S.A. Weather past 2 weeks in Monticello, Kentucky, U.S.A.

Now
43 °F

Light rain. Low clouds.


Feels Like: 39 °F
Forecast: 39 / 46 °F
Wind: 6 mph from North

Location: London-Corbin Airport-Magee Field

Current Time: Dec 28, 2014 at 4:33:20 PM

Latest Report: Dec 28, 2014 at 3:53 PM


Visibility: 10 mi

Pressure: 30.10 "Hg

Humidity: 86%

Dew point: 39 °F

Location of MonticelloLocation

Historic Weather in Monticello — Graph

°F

Monticello temperature yesterday

Maximum temperature yesterday: 61 °F (at 3:53 PM)
Minimum temperature yesterday: 42 °F (at 7:53 AM)
Average temperature yesterday: 50 °F

Past Weeks' High & Low Weather Summary

 TemperatureHumidityPressure
High64 °F (Dec 24, 1:53 PM)89% (Dec 17, 2:53 AM)30.36 "Hg (Dec 17, 2:53 AM)
Low23 °F (Dec 21, 5:53 AM)26% (Dec 27, 3:53 PM)29.44 "Hg (Dec 24, 2:53 PM)
Average42 °F69%30.09 "Hg
* Reported Dec 13 2:53 PM — Dec 28 2:53 PM, Monticello, Weather by CustomWeather, © 2014

Note: Actual official high and low records may vary slightly from our data, if they occured in-between our weather recording intervals... More about our weather records

Advertising

Monticello weather history for previous 24 hours

 ConditionsComfort  
Time TempWeatherWind HumidityBarometerVisibility
2:53 PM
Dec 28
44 °FLight rain. Low clouds.5 mph85%30.09 "Hg10 mi
1:53 PM43 °FLight rain. Low clouds.6 mph86%30.08 "Hg10 mi
12:53 PM45 °FLight rain. Low clouds.7 mph80%30.10 "Hg10 mi
11:53 AM45 °FLight rain. Low clouds.9 mph82%30.10 "Hg10 mi
10:53 AM45 °FLight rain. Mostly cloudy.6 mph86%30.11 "Hg10 mi
9:53 AM48 °FLight rain. Fog.3 mph86%30.10 "Hg6 mi
9:04 AM48 °FLight rain. Fog.3 mph86%30.09 "Hg4 mi
8:53 AM48 °FRain. Fog.6 mph86%30.10 "Hg2 mi
7:59 AM47 °FRain. Fog.No wind86%30.07 "Hg3 mi
6:53 AM47 °FLight rain. Fog.3 mph86%30.06 "Hg2 mi
5:53 AM47 °FFog.3 mph86%30.04 "Hg2 mi
4:53 AM47 °FFog.No wind86%30.04 "Hg2 mi
3:53 AM47 °FFog.No wind86%30.04 "Hg2 mi
2:53 AM46 °FFog.3 mph89%30.06 "Hg2 mi
1:53 AM47 °FLight rain. Low clouds.No wind83%30.07 "Hg2 mi
12:53 AM47 °FLight rain. Mostly cloudy.No wind83%30.07 "Hg3 mi
11:53 PM
Dec 27
48 °FOvercast.3 mph80%30.09 "Hg10 mi
10:53 PM48 °FOvercast.No wind80%30.09 "Hg10 mi
9:53 PM48 °FLight rain. Overcast.5 mph77%30.11 "Hg10 mi
8:53 PM48 °FLight rain. Mostly cloudy.No wind80%30.14 "Hg9 mi
7:53 PM48 °FLight rain. Overcast.6 mph77%30.15 "Hg10 mi
6:53 PM51 °FRain. Mostly cloudy.12 mph61%30.16 "Hg5 mi
5:53 PM57 °FLight rain. Overcast.8 mph39%30.14 "Hg10 mi
4:53 PM59 °FScattered clouds.6 mph29%30.12 "Hg10 mi
Weather by CustomWeather, © 2014

See weather overviewHow to use our weather pages